When you browse on this site, cookies collect data to enhance your experience and personalize the content and advertising you see.
Visit our Privacy Policy to learn more. By continuing to use the site, you agree to this use of cookies and data.
  • In United Kingdom
  • List of Countries
  • For 7 days
  • Water Temperature
  • Satellite Maps
  • Weather Map
  • Weather Widgets
  • user-avatar
    Login

    Hourly Weather Abomey

    Today, 24 April, Wednesday

    Time Temperature Precipitation Wind Pressure Humidity
    00:00 +25°C° 0 mm 0 mps 739 mmHg 89%
    01:00 +25°C° 0.2 mm 0 mps 738 mmHg 88%
    02:00 +25°C° 0.2 mm 0 mps 738 mmHg 88%
    03:00 +25°C° 0.2 mm 0 mps 738 mmHg 88%
    04:00 +25°C° 0 mm 0 mps 738 mmHg 88%
    05:00 +25°C° 0 mm 0 mps 738 mmHg 87%
    06:00 +25°C° 0 mm 0 mps 738 mmHg 87%
    07:00 +26°C° 0 mm 0 mps 738 mmHg 81%
    08:00 +30°C° 0 mm 1 mps 739 mmHg 74%
    09:00 +31°C° 0 mm 1 mps 739 mmHg 68%
    10:00 +32°C° 0 mm 1 mps 739 mmHg 62%
    11:00 +34°C° 0 mm 1 mps 739 mmHg 56%
    12:00 +35°C° 0 mm 1 mps 739 mmHg 50%
    13:00 +35°C° 0 mm 1 mps 738 mmHg 48%
    14:00 +36°C° 0 mm 1 mps 737 mmHg 46%
    15:00 +37°C° 0 mm 2 mps 737 mmHg 44%
    16:00 +36°C° 0 mm 2 mps 737 mmHg 48%
    17:00 +35°C° 0 mm 2 mps 737 mmHg 52%
    18:00 +34°C° 0 mm 2 mps 737 mmHg 56%
    19:00 +33°C° 0 mm 3 mps 738 mmHg 61%
    20:00 +30°C° 0 mm 3 mps 738 mmHg 67%
    21:00 +29°C° 0 mm 3 mps 739 mmHg 72%
    22:00 +29°C° 0 mm 3 mps 739 mmHg 74%
    23:00 +29°C° 0 mm 3 mps 739 mmHg 75%

    Tomorrow, 25 April, Thursday

    Time Temperature Precipitation Wind Pressure Humidity
    00:00 +29°C° 0 mm 2 mps 739 mmHg 77%
    01:00 +29°C° 0 mm 2 mps 739 mmHg 78%
    02:00 +28°C° 0 mm 2 mps 738 mmHg 80%
    03:00 +28°C° 0 mm 2 mps 738 mmHg 81%
    04:00 +28°C° 0 mm 2 mps 738 mmHg 82%
    05:00 +28°C° 0 mm 2 mps 739 mmHg 84%
    06:00 +28°C° 0 mm 2 mps 739 mmHg 85%
    07:00 +29°C° 0 mm 2 mps 739 mmHg 79%
    08:00 +30°C° 0 mm 2 mps 740 mmHg 72%
    09:00 +31°C° 0 mm 2 mps 740 mmHg 66%
    10:00 +34°C° 0 mm 2 mps 740 mmHg 60%
    11:00 +36°C° 0 mm 2 mps 740 mmHg 53%
    12:00 +37°C° 0 mm 1 mps 739 mmHg 47%
    13:00 +37°C° 0 mm 1 mps 738 mmHg 46%
    14:00 +38°C° 0 mm 2 mps 737 mmHg 45%
    15:00 +38°C° 0 mm 2 mps 737 mmHg 44%
    16:00 +37°C° 0 mm 2 mps 737 mmHg 47%
    17:00 +36°C° 0 mm 2 mps 737 mmHg 51%
    18:00 +35°C° 0 mm 3 mps 737 mmHg 54%
    19:00 +33°C° 0.7 mm 3 mps 737 mmHg 64%
    20:00 +30°C° 0.7 mm 3 mps 738 mmHg 73%
    21:00 +28°C° 0.7 mm 3 mps 739 mmHg 83%
    22:00 +28°C° 0 mm 3 mps 738 mmHg 84%
    23:00 +28°C° 0 mm 2 mps 738 mmHg 86%

    Day after tomorrow, 26 April, Friday

    Time Temperature Precipitation Wind Pressure Humidity
    00:00 +28°C° 0 mm 2 mps 738 mmHg 87%
    01:00 +28°C° 0 mm 2 mps 738 mmHg 88%
    02:00 +28°C° 0 mm 2 mps 737 mmHg 88%
    03:00 +27°C° 0 mm 2 mps 737 mmHg 89%
    04:00 +27°C° 0 mm 2 mps 737 mmHg 89%
    05:00 +27°C° 0 mm 2 mps 737 mmHg 89%
    06:00 +27°C° 0 mm 2 mps 737 mmHg 89%
    07:00 +29°C° 0 mm 2 mps 738 mmHg 81%
    08:00 +31°C° 0 mm 3 mps 739 mmHg 72%
    09:00 +33°C° 0 mm 3 mps 739 mmHg 64%
    10:00 +35°C° 0 mm 3 mps 739 mmHg 57%
    11:00 +37°C° 0 mm 2 mps 738 mmHg 50%
    12:00 +39°C° 0 mm 2 mps 738 mmHg 43%
    13:00 +38°C° 0 mm 2 mps 737 mmHg 44%
    14:00 +38°C° 0 mm 2 mps 736 mmHg 44%
    15:00 +38°C° 0 mm 2 mps 736 mmHg 45%
    16:00 +36°C° 0 mm 3 mps 736 mmHg 50%
    17:00 +35°C° 0 mm 3 mps 736 mmHg 55%
    18:00 +34°C° 0 mm 4 mps 736 mmHg 60%
    19:00 +32°C° 0.1 mm 4 mps 736 mmHg 66%
    20:00 +30°C° 0.1 mm 4 mps 737 mmHg 72%
    21:00 +29°C° 0.1 mm 4 mps 738 mmHg 79%
    22:00 +29°C° 0.2 mm 3 mps 738 mmHg 80%
    23:00 +28°C° 0.2 mm 3 mps 738 mmHg 82%

    27 April, Saturday

    Time Temperature Precipitation Wind Pressure Humidity
    00:00 +28°C° 0.2 mm 2 mps 738 mmHg 84%
    01:00 +28°C° 0 mm 2 mps 737 mmHg 84%
    02:00 +28°C° 0 mm 3 mps 737 mmHg 85%
    03:00 +28°C° 0 mm 3 mps 736 mmHg 85%
    04:00 +28°C° 0 mm 3 mps 736 mmHg 86%
    05:00 +27°C° 0 mm 2 mps 736 mmHg 87%
    06:00 +27°C° 0 mm 2 mps 737 mmHg 87%
    07:00 +29°C° 0 mm 3 mps 737 mmHg 79%
    08:00 +31°C° 0 mm 3 mps 738 mmHg 71%
    09:00 +34°C° 0 mm 4 mps 738 mmHg 63%
    10:00 +35°C° 0 mm 4 mps 738 mmHg 57%
    11:00 +37°C° 0 mm 3 mps 738 mmHg 52%
    12:00 +38°C° 0 mm 3 mps 737 mmHg 46%
    13:00 +37°C° 0.1 mm 3 mps 737 mmHg 49%
    14:00 +37°C° 0.1 mm 3 mps 736 mmHg 51%
    15:00 +36°C° 0.1 mm 3 mps 735 mmHg 54%
    16:00 +35°C° 0 mm 4 mps 736 mmHg 56%
    17:00 +34°C° 0 mm 4 mps 736 mmHg 58%
    18:00 +34°C° 0 mm 4 mps 736 mmHg 60%
    19:00 +32°C° 0.1 mm 4 mps 737 mmHg 66%
    20:00 +30°C° 0.1 mm 4 mps 738 mmHg 71%
    21:00 +29°C° 0.1 mm 4 mps 738 mmHg 76%
    22:00 +29°C° 0 mm 3 mps 738 mmHg 77%
    23:00 +29°C° 0 mm 3 mps 738 mmHg 79%

    28 April, Sunday

    Time Temperature Precipitation Wind Pressure Humidity
    00:00 +28°C° 0 mm 3 mps 738 mmHg 80%
    01:00 +28°C° 0 mm 2 mps 737 mmHg 81%
    02:00 +28°C° 0 mm 2 mps 737 mmHg 82%
    03:00 +28°C° 0 mm 2 mps 736 mmHg 83%
    04:00 +28°C° 0 mm 2 mps 737 mmHg 83%
    05:00 +28°C° 0 mm 2 mps 737 mmHg 84%
    06:00 +28°C° 0 mm 2 mps 738 mmHg 84%
    07:00 +29°C° 0 mm 3 mps 738 mmHg 78%
    08:00 +30°C° 0 mm 3 mps 738 mmHg 71%
    09:00 +33°C° 0 mm 4 mps 739 mmHg 65%
    10:00 +34°C° 0 mm 4 mps 738 mmHg 58%
    11:00 +36°C° 0 mm 3 mps 738 mmHg 51%
    12:00 +38°C° 0 mm 3 mps 737 mmHg 45%
    13:00 +38°C° 0 mm 3 mps 737 mmHg 45%
    14:00 +38°C° 0 mm 4 mps 736 mmHg 44%
    15:00 +38°C° 0 mm 4 mps 735 mmHg 44%
    16:00 +37°C° 0 mm 4 mps 736 mmHg 50%
    17:00 +35°C° 0 mm 4 mps 736 mmHg 55%
    18:00 +33°C° 0 mm 4 mps 737 mmHg 60%
    19:00 +32°C° 0 mm 4 mps 737 mmHg 65%
    20:00 +30°C° 0 mm 4 mps 738 mmHg 71%
    21:00 +29°C° 0 mm 4 mps 738 mmHg 76%
    22:00 +29°C° 0 mm 4 mps 738 mmHg 77%
    23:00 +29°C° 0 mm 3 mps 738 mmHg 79%

    29 April, Monday

    Time Temperature Precipitation Wind Pressure Humidity
    00:00 +28°C° 0 mm 3 mps 738 mmHg 80%
    01:00 +28°C° 0 mm 3 mps 738 mmHg 82%
    02:00 +28°C° 0 mm 3 mps 738 mmHg 83%
    03:00 +28°C° 0 mm 3 mps 737 mmHg 84%
    04:00 +28°C° 0 mm 3 mps 738 mmHg 84%
    05:00 +28°C° 0 mm 3 mps 738 mmHg 85%
    06:00 +28°C° 0 mm 3 mps 738 mmHg 85%
    07:00 +29°C° 0 mm 3 mps 739 mmHg 77%
    08:00 +31°C° 0 mm 3 mps 739 mmHg 70%
    09:00 +34°C° 0 mm 4 mps 739 mmHg 62%
    10:00 +35°C° 0 mm 4 mps 739 mmHg 55%
    11:00 +37°C° 0 mm 3 mps 738 mmHg 48%
    12:00 +39°C° 0 mm 3 mps 738 mmHg 41%
    13:00 +39°C° 0 mm 3 mps 737 mmHg 40%
    14:00 +39°C° 0 mm 3 mps 736 mmHg 39%
    15:00 +39°C° 0 mm 3 mps 736 mmHg 38%
    16:00 +38°C° 0 mm 4 mps 736 mmHg 43%
    17:00 +36°C° 0 mm 4 mps 736 mmHg 48%
    18:00 +34°C° 0 mm 5 mps 736 mmHg 53%
    19:00 +33°C° 0 mm 4 mps 737 mmHg 60%
    20:00 +30°C° 0 mm 4 mps 738 mmHg 67%
    21:00 +29°C° 0 mm 4 mps 738 mmHg 73%
    22:00 +29°C° 0 mm 3 mps 738 mmHg 76%
    23:00 +29°C° 0 mm 3 mps 738 mmHg 80%
    Show more